Weather History for KVEL - July, 2013

Change the Weather History Date:

Friday, July 19, 2013

  Actual Average Record
Temperature  
Mean Temperature 77 °F 73 °F  
Max Temperature 94 °F 88 °F - ()
Min Temperature 60 °F 58 °F - ()
Degree Days  
Heating Degree Days 0 0  
Month to date heating degree days 0 2  
Since 1 June heating degree days 15 74  
Since 1 July heating degree days 0 2  
Cooling Degree Days 12 8  
Month to date cooling degree days 226 130  
Year to date cooling degree days 404 221  
Since 1 June cooling degree days 396 212  
Growing Degree Days 27 (Base 50)    
Moisture  
Dew Point 44 °F    
Average Humidity 39    
Maximum Humidity 65    
Minimum Humidity 12    
Precipitation  
Precipitation 0.00 in 0.02 in - ()
Month to date precipitation 0.07 0.36  
Year to date precipitation 3.86 4.57  
Sea Level Pressure  
Sea Level Pressure 29.90 in    
Wind  
Wind Speed 4 mph (WSW)    
Max Wind Speed 12 mph    
Max Gust Speed 24 mph    
Visibility 10 miles    
Events      
T = Trace of Precipitation, MM = Missing Value Source: NWS Daily Summary

Daily Weather History Graph

Daily Weather History Graph

Search for Another Location

Airport or City:

Trip Planner

Search our weather history database for the weather conditions in past years. The results will help you decide how hot, cold, wet, or windy it might be!

Date:

Astronomy

Jul. 19, 2013 Rise Set
Actual Time 6:04 AM MDT 8:44 PM MDT
Civil Twilight 5:32 AM MDT 9:15 PM MDT
Nautical Twilight 4:52 AM MDT 9:55 PM MDT
Astronomical Twilight 4:07 AM MDT 10:40 PM MDT
Moon 5:50 PM MDT (7/19) 2:48 AM MDT (7/19)
Length of Visible Light 15h 43m
Length of Day
14h 40m
Waxing Gibbous, 87% of the Moon is Illuminated
Jul 19
Waxing Gibbous
Jul 22
Full
Jul 29
Last Quarter
Aug 6
New
Aug 14
First Quarter

Hourly Weather History & Observations

Time (MDT) Temp. Dew Point Humidity Pressure Visibility Wind Dir Wind Speed Gust Speed Precip Events Conditions
12:53 AM 71.1 °F 53.1 °F 53% 29.97 in 10.0 mi Calm Calm - N/A   Clear
1:53 AM 68.0 °F 53.1 °F 59% 29.98 in 10.0 mi NW 8.1 mph - N/A   Clear
2:53 AM 64.9 °F 51.1 °F 61% 29.98 in 10.0 mi WNW 5.8 mph - N/A   Clear
3:53 AM 63.0 °F 50.0 °F 63% 29.98 in 10.0 mi Calm Calm - N/A   Clear
4:53 AM 62.1 °F 48.9 °F 62% 29.97 in 10.0 mi West 3.5 mph - N/A   Clear
5:53 AM 61.0 °F 48.9 °F 64% 29.97 in 10.0 mi West 3.5 mph - N/A   Clear
6:53 AM 63.0 °F 50.0 °F 63% 29.99 in 10.0 mi West 3.5 mph - N/A   Clear
7:53 AM 69.1 °F 52.0 °F 54% 29.99 in 10.0 mi Calm Calm - N/A   Clear
8:53 AM 73.9 °F 51.1 °F 45% 30.00 in 10.0 mi Calm Calm - N/A   Clear
9:53 AM 75.9 °F 51.1 °F 42% 30.00 in 10.0 mi South 3.5 mph - N/A   Clear
10:53 AM 78.1 °F 51.1 °F 39% 29.98 in 10.0 mi Variable 4.6 mph - N/A   Clear
11:53 AM 82.0 °F 52.0 °F 35% 29.95 in 10.0 mi SSW 3.5 mph - N/A   Clear
12:53 PM 86.0 °F 46.9 °F 26% 29.92 in 10.0 mi South 5.8 mph - N/A   Clear
1:53 PM 89.1 °F 46.0 °F 22% 29.89 in 10.0 mi Calm Calm - N/A   Clear
2:53 PM 91.9 °F 39.0 °F 16% 29.86 in 10.0 mi South 6.9 mph - N/A   Clear
3:53 PM 93.0 °F 37.9 °F 15% 29.83 in 10.0 mi SSW 4.6 mph - N/A   Clear
4:53 PM 93.9 °F 34.0 °F 12% 29.80 in 10.0 mi Calm Calm - N/A   Clear
5:53 PM 93.0 °F 36.0 °F 13% 29.79 in 10.0 mi South 4.6 mph - N/A   Clear
6:53 PM 91.0 °F 39.0 °F 16% 29.77 in 10.0 mi South 3.5 mph - N/A   Clear
7:53 PM 89.1 °F 37.9 °F 16% 29.78 in 10.0 mi North 6.9 mph - N/A   Clear
8:53 PM 80.1 °F 44.1 °F 28% 29.79 in 10.0 mi West 5.8 mph - N/A   Clear
9:53 PM 75.9 °F 34.0 °F 22% 29.82 in 10.0 mi West 8.1 mph - N/A   Clear
10:53 PM 78.1 °F 27.0 °F 15% 29.81 in 10.0 mi NW 8.1 mph - N/A   Clear
11:53 PM 80.1 °F 23.0 °F 12% 29.81 in 10.0 mi NNW 10.4 mph - N/A   Clear